Location: Novokuznetsk
(53.7500°N, 87.1000°E)
Time: 01:31:39
(UTC+06:00)

ISS - Visible Passes

Search period start: 30 January 2023 00:00
Search period end: 09 February 2023 00:00
Orbit: 413 x 419 km, 51.6° (Epoch: 29 January)

Date Brightness Start Highest point End Pass type
(mag) Time Alt. Az. Time Alt. Az. Time Alt. Az.
30 Jan -2.2 18:54:06 10° W 18:57:07 30° SSW 18:58:19 23° SSE visible
31 Jan -2.5 18:05:22 10° W 18:08:32 39° SSW 18:11:42 10° SE visible
31 Jan -0.9 19:43:01 10° WSW 19:44:37 13° SW 19:44:51 13° SSW visible
01 Feb -1.2 18:53:45 10° WSW 18:56:07 18° SSW 18:58:29 10° SSE visible
02 Feb -1.5 18:04:45 10° W 18:07:33 24° SSW 18:10:20 10° SSE visible
04 Feb -0.7 18:04:30 10° WSW 18:06:17 14° SW 18:08:04 10° S visible
